Tracking 18630 objects as of 22-May-2017
HD Live streaming from Space Station
objects crossing your sky now

DELTA 1 R/B

Track DELTA 1 R/B now!
10-day predictions


NORAD ID: 2661
Int'l Code: 1967-006B
Perigee: 1,346.9 km
Apogee: 1,448.2 km
Inclination: 101.9 °
Period: 113.6 minutes
Semi major axis: 7768 km
RCS: 0.6811 m2 (medium)
Launch date: January 26, 1967
Source: United States (US)
Launch site: AIR FORCE WESTERN TEST RANGE (AFWTR)

Note: This is a ROCKET BODY
Your satellite tracking list
Your tracking list is empty





NASA's NSSDC Master Catalog

Two Line Element Set (TLE):
1  2661U 67006B   17141.92064088 -.00000053 +00000-0 -27040-4 0  9992
2  2661 101.9139 050.0815 0065167 068.3036 064.9872 12.67926506328228
Source of the keplerian elements: AFSPC